Location: Eschentzwiller
(47.7125°N, 7.3981°E)
Time: 04:20:22
(UTC+00:00)

Cosmos 1340 - Pass Details

Date: 27 October 2020
Orbit: 501 x 504 km, 81.2° (Epoch: 01 December)

Event Time Altitude Azimuth Distance (km) Brightness Sun altitude
Rises 17:58:27 0° 344° (NNW) 2,618 6.5 -17.1°
Reaches altitude 10° 18:00:37 10° 340° (NNW) 1,728 5.6 -17.4°
Maximum altitude 18:04:19 53° 263° (W) 627 3.4 -18.1°
Drops below altitude 10° 18:07:59 10° 186° (S) 1,714 5.4 -18.7°
Sets 18:10:08 0° 182° (S) 2,594 6.3 -19.0°
